Regional Weather Roundup
Issued by NWS

Home | Current Version | Previous Version | Graphics & Text | Print | Product List | Glossary On
Versions: 1 2 3 4 5 6 7 8 9 10 11 12 13 14 15 16 17 18 19 20 21 22 23 24 25 26 27 28 29 30 31 32 33 34 35 36 37 38 39 40 41 42 43 44 45 46 47 48 49 50
000
ASUS45 KBOI 191510
RWRID
WEATHER ROUNDUP FOR IDAHO
NATIONAL WEATHER SERVICE BOISE ID
900 AM MDT SUN OCT 19 2014

NOTE: "FAIR" INDICATES FEW OR NO CLOUDS BELOW 12000 FEET
WITH NO SIGNIFICANT WEATHER AND/OR OBSTRUCTIONS TO VISIBILITY

IDZ012-014-191600-
SOUTHWEST IDAHO


CITY           SKY/WX    TMP DP  RH WIND       PRES   REMARKS
BOISE          CLEAR     53  35  50 SE13      30.02R
CALDWELL       CLEAR     41  27  56 SE3       30.05R
MOUNTAIN HOME  CLEAR     44  33  65 SE10      30.05R
$$

IDZ016-017-191600-
SOUTHCENTRAL IDAHO


CITY           SKY/WX    TMP DP  RH WIND       PRES   REMARKS
BURLEY         SUNNY     36  30  79 NE6       30.10R WCI  31
JEROME         LGT RAIN  46  30  53 NE22      30.07R
TWIN FALLS     SUNNY     46  32  58 CALM      30.07R
$$

IDZ019>023-191600-
SOUTHEAST IDAHO


CITY           SKY/WX    TMP DP  RH WIND       PRES   REMARKS
IDAHO FALLS    SUNNY     36  32  85 N6        30.15S WCI  31
POCATELLO      SUNNY     36  32  85 N3        30.14R
REXBURG        SUNNY     35  30  82 CALM      30.17R
$$

IDZ006-010-011-018-031-032-191600-
CENTRAL IDAHO MOUNTAINS


CITY           SKY/WX    TMP DP  RH WIND       PRES   REMARKS
MCCALL         CLEAR     31  29  92 CALM      30.07S
HAILEY         SUNNY     37  27  65 MISG      30.17R
STANLEY          N/A     24  20  84 CALM      30.22R
SALMON         NOT AVBL
CHALLIS        CLEAR     37  28  70 CALM      30.17R
$$

IDZ002-004-006-007-026-191600-
NORTHERN IDAHO


CITY           SKY/WX    TMP DP  RH WIND       PRES   REMARKS
LEWISTON       CLEAR     51  45  79 E10       29.93S
LOWELL           N/A     43  41  93 VRB5      30.06R
COEUR D`ALENE  CLOUDY    48  46  93 NE13      29.97S
MULLAN PASS    CLEAR     44  38  79 SE7       30.06S
$$


USA.gov is the U.S. government's official web portal to all federal, state and local government web resources and services.